GW5323 Weather Reports


time (UTC)temp
C
wind
direction
speed
KPH
gust
KPH
rain 1hr
cm
rain 24hr
cm
rain mn
cm
humidity
%
barometer
mb
20260503200350 13 97 6.4 16.1 0.00 0.00 0.00 43 1016.3
20260503195848 12 115 12.9 14.5 0.00 0.00 0.00 40 1016.4
20260503195344 12 41 16.1 24.1 0.00 0.00 0.00 41 1016.3
20260503194841 13 42 11.3 17.7 0.00 0.00 0.00 40 1016.5
20260503194337 13 73 11.3 24.1 0.00 0.00 0.00 43 1016.5
20260503193834 12 58 17.7 24.1 0.00 0.00 0.00 39 1016.5
20260503193330 13 29 8.0 25.7 0.00 0.00 0.00 39 1016.5
20260503192826 13 54 9.7 16.1 0.00 0.00 0.00 42 1016.7
20260503192321 12 46 6.4 16.1 0.00 0.00 0.00 40 1016.7
20260503191818 13 59 14.5 24.1 0.00 0.00 0.00 39 1016.8
20260503191315 12 21 8.0 16.1 0.00 0.00 0.00 44 1016.8
20260503190812 12 34 11.3 24.1 0.00 0.00 0.00 41 1016.9
20260503190309 12 102 11.3 24.1 0.00 0.00 0.00 42 1017.1
20260503185806 13 41 17.7 25.7 0.00 0.00 0.00 41 1016.7
20260503185301 12 24 11.3 20.9 0.00 0.00 0.00 40 1017.0
20260503184801 13 247 3.2 16.1 0.00 0.00 0.00 44 1016.9
20260503184258 13 73 14.5 30.6 0.00 0.00 0.00 41 1017.0
20260503183753 12 67 14.5 24.1 0.00 0.00 0.00 41 1017.3
20260503183252 12 47 12.9 22.5 0.00 0.00 0.00 42 1017.2
20260503182749 12 42 6.4 30.6 0.00 0.00 0.00 45 1017.1
20260503182248 13 61 6.4 11.3 0.00 0.00 0.00 50 1017.1
20260503181744 12 29 12.9 14.5 0.00 0.00 0.00 40 1017.3
20260503181241 12 13 6.4 30.6 0.00 0.00 0.00 47 1017.2
20260503180737 12 28 16.1 29.0 0.00 0.00 0.00 43 1017.4
20260503180236 12 116 20.9 20.9 0.00 0.00 0.00 42 1017.3
20260503175732 11 32 9.7 19.3 0.00 0.00 0.00 42 1017.4
20260503175230 12 48 16.1 19.3 0.00 0.00 0.00 42 1017.3
20260503174726 11 35 4.8 22.5 0.00 0.00 0.00 45 1017.6
20260503174224 11 43 12.9 16.1 0.00 0.00 0.00 44 1017.6
20260503173724 12 36 8.0 19.3 0.00 0.00 0.00 44 1017.3
20260503173221 12 61 12.9 14.5 0.00 0.00 0.00 44 1017.6
20260503172718 11 52 9.7 17.7 0.00 0.00 0.00 43 1017.6
20260503172215 11 55 16.1 22.5 0.00 0.00 0.00 43 1017.4
20260503171711 11 63 9.7 19.3 0.00 0.00 0.00 44 1017.6
20260503171208 12 109 20.9 24.1 0.00 0.00 0.00 45 1017.6
20260503170705 11 69 9.7 16.1 0.00 0.00 0.00 44 1017.6
20260503170202 12 85 14.5 19.3 0.00 0.00 0.00 45 1017.7
20260503160124 10 102 12.9 24.1 0.00 0.00 0.00 43 1018.3
20260503150553 9 113 4.8 19.3 0.00 0.00 0.00 49 1018.9
20260503130943 6 99 9.7 14.5 0.00 0.00 0.00 64 1019.2
20260503130441 5 79 8.0 12.9 0.00 0.00 0.00 64 1019.2
20260503110331 1 56 3.2 6.4 0.00 0.00 0.00 78 1018.5
20260503100257 0 247 1.6 4.8 0.00 0.00 0.00 82 1017.9
20260503090217 1 345 1.6 4.8 0.00 0.00 0.00 76 1017.9
20260503081144 1 222 1.6 3.2 0.00 0.00 0.00 74 1017.8
20260503080640 1 105 3.2 4.8 0.00 0.00 0.00 74 1017.6
20260503080137 1 302 3.2 3.2 0.00 0.00 0.00 74 1017.5
20260503072614 1 29 1.6 3.2 0.00 0.00 0.00 73 1017.4
20260503072111 1 103 0.0 8.0 0.00 0.00 0.00 72 1017.4
20260503071608 1 61 3.2 3.2 0.00 0.00 0.00 72 1017.5
20260503071104 1 313 3.2 4.8 0.00 0.00 0.00 72 1017.3
20260503070601 1 144 6.4 6.4 0.00 0.00 0.00 73 1017.2
20260503055020 2 29 1.6 3.2 0.00 0.00 0.00 69 1017.4
20260503054516 2 103 3.2 4.8 0.00 0.00 0.00 69 1017.4
20260503054014 2 147 0.0 3.2 0.00 0.00 0.00 68 1017.4
20260503053512 2 72 4.8 6.4 0.00 0.00 0.00 67 1017.5
20260503053009 3 19 6.4 9.7 0.00 0.00 0.00 65 1017.5
20260503052505 3 110 1.6 6.4 0.00 0.00 0.00 66 1017.5
20260503052002 3 62 9.7 11.3 0.00 0.00 0.00 65 1017.5
20260503051457 3 77 1.6 6.4 0.00 0.00 0.00 68 1017.6
20260503050956 3 21 3.2 3.2 0.00 0.00 0.00 67 1017.5
20260503050451 3 92 3.2 6.4 0.00 0.00 0.00 66 1017.5
20260503045949 3 72 4.8 8.0 0.00 0.00 0.00 67 1017.7
20260503045446 3 66 4.8 9.7 0.00 0.00 0.00 67 1017.5
20260503044942 3 36 4.8 6.4 0.00 0.00 0.00 69 1017.6
20260503044439 3 40 4.8 9.7 0.00 0.00 0.00 67 1017.6
20260503043937 3 47 4.8 9.7 0.00 0.00 0.00 65 1017.5
20260503043433 3 95 6.4 9.7 0.00 0.00 0.00 66 1017.5
20260503042929 3 112 8.0 16.1 0.00 0.00 0.00 63 1017.6
20260503042426 3 103 8.0 11.3 0.00 0.00 0.00 63 1017.6
20260503041923 3 35 4.8 8.0 0.00 0.00 0.00 65 1017.5
20260503041420 3 167 0.0 6.4 0.00 0.00 0.00 64 1017.5
20260503040917 4 6 6.4 11.3 0.00 0.00 0.00 64 1017.6
20260503040414 4 105 3.2 9.7 0.00 0.00 0.00 63 1017.5
20260503035912 4 198 0.0 3.2 0.00 0.05 0.05 63 1017.4
20260503035409 4 80 4.8 4.8 0.00 0.05 0.05 64 1017.7
20260503034906 4 91 3.2 4.8 0.00 0.05 0.05 64 1017.5
20260503034404 4 190 3.2 6.4 0.00 0.05 0.05 66 1017.6
20260503033901 4 186 1.6 3.2 0.00 0.05 0.05 66 1017.7
20260503033358 4 128 1.6 11.3 0.00 0.05 0.05 64 1017.7
20260503032856 4 96 3.2 6.4 0.00 0.05 0.05 65 1017.6
20260503032355 4 358 1.6 4.8 0.00 0.05 0.05 66 1017.8
20260503031851 4 27 1.6 3.2 0.00 0.05 0.05 66 1017.7
20260503031349 4 67 3.2 4.8 0.00 0.05 0.05 65 1018.1
20260503030845 5 45 8.0 8.0 0.00 0.05 0.05 64 1017.9
20260503030341 4 93 9.7 16.1 0.00 0.05 0.05 65 1017.9
20260503025838 4 91 3.2 6.4 0.00 0.05 0.05 67 1017.9
20260503025336 4 71 3.2 12.9 0.00 0.05 0.05 68 1017.9
20260503024832 4 46 3.2 6.4 0.00 0.05 0.05 67 1017.9
20260503024329 5 53 3.2 6.4 0.00 0.05 0.05 69 1018.1
20260503023826 5 98 3.2 19.3 0.00 0.05 0.05 66 1018.1
20260503023323 5 95 3.2 8.0 0.00 0.05 0.05 68 1017.9
20260503022820 5 86 4.8 8.0 0.00 0.05 0.05 67 1018.1
20260503022320 5 87 4.8 6.4 0.00 0.05 0.05 70 1018.1
20260503021816 5 56 4.8 6.4 0.00 0.05 0.05 70 1018.1
20260503021313 5 60 3.2 9.7 0.00 0.05 0.05 70 1018.1
20260503020810 5 72 3.2 6.4 0.00 0.05 0.05 69 1017.9
20260503020308 5 18 3.2 6.4 0.00 0.05 0.05 70 1018.0
20260503015804 5 89 3.2 8.0 0.00 0.05 0.05 68 1018.1
20260503015301 5 31 3.2 3.2 0.00 0.05 0.05 69 1017.7
20260503014757 5 75 6.4 8.0 0.00 0.05 0.05 67 1017.8
20260503014255 5 72 4.8 8.0 0.00 0.05 0.05 67 1017.7
20260503013752 5 103 6.4 6.4 0.00 0.05 0.05 70 1017.8
20260503013249 5 92 6.4 9.7 0.00 0.05 0.05 69 1017.8
20260503012746 5 92 6.4 14.5 0.00 0.05 0.05 70 1017.9
20260503012244 5 269 1.6 3.2 0.00 0.05 0.05 71 1017.8
20260503011740 5 43 3.2 6.4 0.00 0.05 0.05 74 1017.7
20260503011237 5 110 9.7 9.7 0.00 0.05 0.05 75 1017.9
20260503010733 5 269 0.0 1.6 0.00 0.05 0.05 74 1017.6
20260503010230 5 119 4.8 6.4 0.00 0.05 0.05 73 1017.7
20260503005728 5 47 6.4 9.7 0.00 0.05 0.05 76 1017.6
20260503005225 4 62 6.4 8.0 0.00 0.05 0.05 78 1017.6
20260503004721 5 148 0.0 3.2 0.00 0.05 0.05 78 1017.5
20260503004220 5 113 0.0 4.8 0.00 0.05 0.05 77 1017.5
20260503003716 5 69 1.6 4.8 0.00 0.05 0.05 76 1017.3
20260503003214 5 94 3.2 6.4 0.00 0.05 0.05 75 1017.2
20260503002710 5 47 0.0 4.8 0.00 0.05 0.05 77 1017.4
20260503002207 5 129 4.8 9.7 0.00 0.05 0.05 77 1017.1
20260503001703 5 113 4.8 8.0 0.00 0.05 0.05 77 1017.1
20260503001200 5 122 3.2 4.8 0.00 0.05 0.05 76 1017.4
20260503000658 5 66 0.0 4.8 0.00 0.05 0.05 76 1017.2
20260503000155 5 96 4.8 6.4 0.00 0.05 0.05 77 1017.2
20260502235651 5 33 6.4 8.0 0.00 0.05 0.05 75 1017.1
20260502235149 5 30 4.8 6.4 0.00 0.05 0.05 75 1017.2
20260502234646 5 28 4.8 12.9 0.00 0.05 0.05 74 1017.2
20260502234143 5 349 1.6 8.0 0.00 0.05 0.05 74 1017.1
20260502233639 5 99 3.2 6.4 0.00 0.05 0.05 76 1017.1
20260502233135 5 32 3.2 6.4 0.00 0.05 0.05 76 1017.0
20260502232631 5 37 3.2 4.8 0.00 0.05 0.05 74 1017.0
20260502232129 5 24 3.2 3.2 0.00 0.05 0.05 74 1016.9
20260502231625 5 56 3.2 6.4 0.00 0.05 0.05 72 1016.8
20260502231123 5 38 9.7 14.5 0.00 0.05 0.05 71 1017.0
20260502230621 6 58 4.8 9.7 0.00 0.05 0.05 72 1017.0
20260502230120 6 42 3.2 11.3 0.00 0.05 0.05 71 1017.1
20260502225614 6 58 8.0 8.0 0.00 0.05 0.05 71 1016.9
20260502225112 6 62 3.2 11.3 0.00 0.05 0.05 70 1016.9
20260502224608 6 79 3.2 9.7 0.00 0.05 0.05 70 1016.8
20260502224105 6 80 1.6 4.8 0.00 0.05 0.05 70 1016.8
20260502223603 6 65 1.6 6.4 0.00 0.05 0.05 70 1016.8
20260502223101 6 94 3.2 8.0 0.00 0.05 0.05 71 1016.7
20260502222558 6 348 6.4 9.7 0.00 0.05 0.05 70 1016.8
20260502222054 6 70 4.8 8.0 0.00 0.05 0.05 70 1016.7
20260502221550 6 28 4.8 12.9 0.00 0.05 0.05 70 1016.7
20260502221048 6 55 6.4 12.9 0.00 0.05 0.05 71 1016.9
20260502220543 6 26 8.0 11.3 0.00 0.05 0.05 72 1016.9
20260502220040 6 53 3.2 6.4 0.00 0.05 0.05 73 1016.7
20260502215537 6 27 6.4 9.7 0.00 0.05 0.05 70 1016.8
20260502215034 6 79 4.8 9.7 0.00 0.05 0.05 71 1016.7
20260502214531 6 31 4.8 6.4 0.00 0.05 0.05 74 1016.6
20260502214029 6 79 3.2 4.8 0.00 0.05 0.05 72 1016.7
20260502213525 6 81 4.8 6.4 0.00 0.05 0.05 73 1016.6
20260502213023 7 177 4.8 4.8 0.00 0.05 0.05 72 1016.6
20260502212522 7 30 4.8 6.4 0.00 0.05 0.05 74 1016.7
20260502212019 6 71 4.8 12.9 0.00 0.05 0.05 77 1016.4
20260502211514 6 106 1.6 8.0 0.00 0.05 0.05 76 1016.6
20260502211012 6 180 0.0 8.0 0.00 0.05 0.05 77 1016.6
20260502210509 6 74 8.0 9.7 0.00 0.05 0.05 78 1016.5
20260502210006 6 101 8.0 17.7 0.00 0.05 0.05 77 1016.6
20260502205502 6 95 6.4 8.0 0.00 0.05 0.05 76 1016.4
20260502204959 6 102 6.4 6.4 0.00 0.05 0.05 78 1016.6
20260502204456 5 115 6.4 14.5 0.00 0.05 0.05 77 1016.6
20260502203954 6 98 3.2 6.4 0.05 0.05 0.05 79 1016.5
20260502203451 6 104 12.9 12.9 0.05 0.05 0.05 79 1016.7
20260502202947 6 78 8.0 9.7 0.00 0.05 0.05 75 1016.6
20260502202444 6 78 8.0 9.7 0.00 0.05 0.05 75 1016.6
20260502201942 6 109 8.0 12.9 0.00 0.05 0.05 74 1016.5
20260502201438 6 109 8.0 12.9 0.00 0.05 0.05 74 1016.7
20260502200935 6 67 3.2 12.9 0.00 0.05 0.05 74 1016.7
20260502200430 6 91 8.0 11.3 0.00 0.05 0.05 72 1016.6